Tracking 30510 objects as of 22-May-2025
HD Live streaming from Space Station
objects crossing your sky now

STARLINK-1601

Track STARLINK-1601 now!
10-day predictions
STARLINK-1601 is classified as:


NORAD ID: 46120
Int'l Code: 2020-057D
Perigee: 553.5 km
Apogee: 555.2 km
Inclination: 53.1 °
Period: 95.6 minutes
Semi major axis: 6925 km
RCS: Unknown
Launch date: August 18, 2020
Source: United States (US)
Launch site: AIR FORCE EASTERN TEST RANGE (AFETR)
Your satellite tracking list
Your tracking list is empty




NASA's NSSDC Master Catalog

Two Line Element Set (TLE):
1 46120U 20057D   25141.54174182 -.00000299  00000-0 -11875-5 0  9991
2 46120  53.0536 188.1228 0001270  92.7895 267.3239 15.06393936262699
Source of the keplerian elements: AFSPC